EN

Hourly Weather Novgorodskoe

Today, 20 October, Tuesday

Time Temperature Precipitation Wind Pressure Humidity
00:00 0°C° 0.1 mm 5 mps 740 mmHg 87%
01:00 0°C° 0.1 mm 4 mps 740 mmHg 85%
02:00 0°C° 0 mm 4 mps 741 mmHg 83%
03:00 0°C° 0.1 mm 4 mps 741 mmHg 86%
04:00 +1°C° 0.1 mm 3 mps 741 mmHg 89%
05:00 +1°C° 0.1 mm 3 mps 741 mmHg 92%
06:00 +1°C° 0.7 mm 3 mps 741 mmHg 93%
07:00 +1°C° 0.7 mm 3 mps 741 mmHg 94%
08:00 +1°C° 0 mm 3 mps 741 mmHg 94%
09:00 0°C° 0.2 mm 4 mps 742 mmHg 94%
10:00 0°C° 0.2 mm 4 mps 742 mmHg 93%
11:00 0°C° 0.2 mm 4 mps 743 mmHg 93%
12:00 0°C° 0.1 mm 4 mps 744 mmHg 86%
13:00 +1°C° 0.1 mm 4 mps 745 mmHg 80%
14:00 +2°C° 0 mm 5 mps 745 mmHg 73%
15:00 +1°C° 0 mm 4 mps 746 mmHg 76%
16:00 0°C° 0 mm 4 mps 746 mmHg 79%
17:00 0°C° 0 mm 3 mps 747 mmHg 82%
18:00 0°C° 0 mm 3 mps 747 mmHg 84%
19:00 0°C° 0 mm 3 mps 748 mmHg 86%
20:00 -1°C° 0 mm 3 mps 749 mmHg 88%
21:00 -1°C° 0 mm 3 mps 749 mmHg 89%
22:00 -1°C° 0 mm 3 mps 749 mmHg 90%
23:00 -2°C° 0 mm 3 mps 749 mmHg 91%

Tomorrow, 21 October, Wednesday

Time Temperature Precipitation Wind Pressure Humidity
00:00 -2°C° 0 mm 2 mps 750 mmHg 92%
01:00 -2°C° 0 mm 2 mps 750 mmHg 92%
02:00 -2°C° 0 mm 2 mps 750 mmHg 93%
03:00 -2°C° 0 mm 2 mps 750 mmHg 94%
04:00 -2°C° 0 mm 2 mps 750 mmHg 95%
05:00 0°C° 0 mm 1 mps 750 mmHg 96%
06:00 -1°C° 0 mm 2 mps 750 mmHg 93%
07:00 -1°C° 0 mm 2 mps 750 mmHg 90%
08:00 +1°C° 0 mm 2 mps 750 mmHg 87%
09:00 +1°C° 0 mm 2 mps 750 mmHg 87%
10:00 +2°C° 0 mm 2 mps 750 mmHg 87%
11:00 +2°C° 0 mm 2 mps 749 mmHg 87%
12:00 +2°C° 0.1 mm 2 mps 749 mmHg 90%
13:00 +3°C° 0.1 mm 1 mps 749 mmHg 93%
14:00 +3°C° 0.1 mm 1 mps 749 mmHg 96%
15:00 +3°C° 0.1 mm 1 mps 748 mmHg 97%
16:00 +3°C° 0.1 mm 1 mps 748 mmHg 98%
17:00 +3°C° 0.1 mm 1 mps 748 mmHg 98%
18:00 +3°C° 0.1 mm 1 mps 748 mmHg 98%
19:00 +4°C° 0.1 mm 1 mps 748 mmHg 98%
20:00 +4°C° 0.1 mm 1 mps 748 mmHg 98%
21:00 +4°C° 0.1 mm 1 mps 747 mmHg 98%
22:00 +4°C° 0.1 mm 1 mps 747 mmHg 98%
23:00 +4°C° 0.1 mm 1 mps 747 mmHg 98%

Day after tomorrow, 22 October, Thursday

Time Temperature Precipitation Wind Pressure Humidity
00:00 +4°C° 0 mm 1 mps 747 mmHg 98%
01:00 +4°C° 0 mm 1 mps 747 mmHg 98%
02:00 +4°C° 0 mm 1 mps 747 mmHg 98%
03:00 +3°C° 0 mm 2 mps 747 mmHg 98%
04:00 +3°C° 0 mm 2 mps 747 mmHg 98%
05:00 +3°C° 0 mm 2 mps 746 mmHg 98%
06:00 +3°C° 0 mm 2 mps 746 mmHg 97%
07:00 +4°C° 0 mm 2 mps 746 mmHg 96%
08:00 +4°C° 0 mm 2 mps 746 mmHg 95%
09:00 +4°C° 0 mm 3 mps 745 mmHg 94%
10:00 +4°C° 0 mm 3 mps 745 mmHg 92%
11:00 +5°C° 0 mm 3 mps 744 mmHg 90%
12:00 +5°C° 0.3 mm 3 mps 744 mmHg 91%
13:00 +5°C° 0.3 mm 4 mps 743 mmHg 92%
14:00 +5°C° 0.3 mm 4 mps 743 mmHg 94%
15:00 +5°C° 1.2 mm 4 mps 742 mmHg 94%
16:00 +5°C° 1.2 mm 4 mps 741 mmHg 95%
17:00 +5°C° 1.2 mm 4 mps 740 mmHg 95%
18:00 +5°C° 0.8 mm 4 mps 740 mmHg 95%
19:00 +7°C° 0.8 mm 3 mps 739 mmHg 95%
20:00 +7°C° 0.8 mm 3 mps 739 mmHg 96%
21:00 +8°C° 0.5 mm 3 mps 738 mmHg 95%
22:00 +7°C° 0.5 mm 4 mps 738 mmHg 95%
23:00 +8°C° 0.5 mm 4 mps 738 mmHg 95%

23 October, Friday

Time Temperature Precipitation Wind Pressure Humidity
00:00 +10°C° 0.1 mm 4 mps 738 mmHg 93%
01:00 +10°C° 0.1 mm 4 mps 738 mmHg 91%
02:00 +10°C° 0.1 mm 5 mps 738 mmHg 89%
03:00 +11°C° 0 mm 4 mps 739 mmHg 89%
04:00 +10°C° 0 mm 4 mps 739 mmHg 89%
05:00 +10°C° 0 mm 4 mps 739 mmHg 89%
06:00 +10°C° 0 mm 4 mps 739 mmHg 88%
07:00 +11°C° 0 mm 4 mps 739 mmHg 86%
08:00 +11°C° 0 mm 4 mps 739 mmHg 85%
09:00 +11°C° 0 mm 4 mps 739 mmHg 82%
10:00 +11°C° 0 mm 4 mps 739 mmHg 80%
11:00 +12°C° 0 mm 4 mps 739 mmHg 77%
12:00 +12°C° 0.1 mm 4 mps 739 mmHg 79%
13:00 +12°C° 0.1 mm 3 mps 738 mmHg 81%
14:00 +12°C° 0.1 mm 3 mps 737 mmHg 83%
15:00 +12°C° 2.4 mm 3 mps 737 mmHg 87%
16:00 +11°C° 2.4 mm 3 mps 736 mmHg 91%
17:00 +11°C° 2.4 mm 3 mps 735 mmHg 95%
18:00 +11°C° 0.2 mm 3 mps 735 mmHg 93%
19:00 +11°C° 0.2 mm 4 mps 735 mmHg 90%
20:00 +11°C° 0.2 mm 4 mps 735 mmHg 88%
21:00 +10°C° 0 mm 4 mps 735 mmHg 88%
22:00 +10°C° 0 mm 4 mps 736 mmHg 88%
23:00 +8°C° 0 mm 4 mps 736 mmHg 87%

24 October, Saturday

Time Temperature Precipitation Wind Pressure Humidity
00:00 +8°C° 0 mm 4 mps 736 mmHg 86%
01:00 +9°C° 0 mm 5 mps 737 mmHg 84%
02:00 +9°C° 0 mm 5 mps 737 mmHg 82%
03:00 +8°C° 0 mm 4 mps 738 mmHg 83%
04:00 +8°C° 0 mm 4 mps 738 mmHg 85%
05:00 +8°C° 0 mm 3 mps 738 mmHg 86%
06:00 +9°C° 0 mm 3 mps 739 mmHg 86%
07:00 +9°C° 0 mm 3 mps 739 mmHg 85%
08:00 +9°C° 0 mm 3 mps 740 mmHg 85%
09:00 +9°C° 0 mm 3 mps 740 mmHg 83%
10:00 +10°C° 0 mm 3 mps 740 mmHg 82%
11:00 +10°C° 0 mm 4 mps 741 mmHg 80%
12:00 +10°C° 0 mm 3 mps 741 mmHg 79%
13:00 +10°C° 0 mm 3 mps 741 mmHg 79%
14:00 +10°C° 0 mm 3 mps 741 mmHg 78%
15:00 +9°C° 0 mm 3 mps 741 mmHg 82%
16:00 +8°C° 0 mm 2 mps 741 mmHg 85%
17:00 +7°C° 0 mm 2 mps 741 mmHg 88%
18:00 +8°C° 0 mm 1 mps 741 mmHg 89%
19:00 +8°C° 0 mm 1 mps 741 mmHg 91%
20:00 +8°C° 0 mm 1 mps 741 mmHg 92%
21:00 +7°C° 0 mm 1 mps 741 mmHg 92%
22:00 +7°C° 0 mm 1 mps 741 mmHg 92%
23:00 +7°C° 0 mm 1 mps 740 mmHg 92%

25 October, Sunday

Time Temperature Precipitation Wind Pressure Humidity
00:00 +7°C° 0 mm 1 mps 740 mmHg 92%
01:00 +6°C° 0 mm 0 mps 740 mmHg 92%
02:00 +6°C° 0 mm 0 mps 740 mmHg 91%
03:00 +6°C° 0 mm 0 mps 740 mmHg 92%
04:00 +6°C° 0 mm 0 mps 739 mmHg 92%
05:00 +7°C° 0 mm 1 mps 739 mmHg 92%
06:00 +7°C° 0 mm 1 mps 739 mmHg 92%
07:00 +7°C° 0 mm 1 mps 739 mmHg 92%
08:00 +8°C° 0 mm 1 mps 739 mmHg 91%
09:00 +7°C° 0 mm 2 mps 740 mmHg 89%
10:00 +7°C° 0 mm 2 mps 740 mmHg 87%
11:00 +8°C° 0 mm 3 mps 741 mmHg 86%
12:00 +8°C° 0 mm 3 mps 741 mmHg 85%
13:00 +8°C° 0 mm 3 mps 741 mmHg 84%
14:00 +8°C° 0 mm 3 mps 742 mmHg 83%
15:00 +7°C° 0 mm 2 mps 742 mmHg 86%
16:00 +7°C° 0 mm 2 mps 743 mmHg 88%
17:00 +7°C° 0 mm 2 mps 744 mmHg 90%
18:00 +6°C° 0 mm 2 mps 744 mmHg 92%
19:00 +5°C° 0 mm 2 mps 745 mmHg 93%
20:00 +5°C° 0 mm 2 mps 745 mmHg 95%
21:00 +4°C° 0 mm 2 mps 746 mmHg 95%
22:00 +4°C° 0 mm 2 mps 746 mmHg 95%
23:00 +5°C° 0 mm 1 mps 747 mmHg 96%

26 October, Monday

Time Temperature Precipitation Wind Pressure Humidity
00:00 +5°C° 0 mm 1 mps 747 mmHg 96%
01:00 +4°C° 0 mm 1 mps 748 mmHg 96%
02:00 +4°C° 0 mm 1 mps 748 mmHg 95%
03:00 +4°C° 0 mm 1 mps 749 mmHg 95%
04:00 +5°C° 0 mm 1 mps 749 mmHg 94%
05:00 +5°C° 0 mm 1 mps 750 mmHg 94%
06:00 +5°C° 0 mm 1 mps 750 mmHg 94%
07:00 +6°C° 0 mm 1 mps 750 mmHg 93%
08:00 +6°C° 0 mm 1 mps 751 mmHg 93%
09:00 +7°C° 0 mm 1 mps 751 mmHg 91%
10:00 +8°C° 0 mm 1 mps 752 mmHg 89%
11:00 +9°C° 0 mm 1 mps 752 mmHg 87%
12:00 +9°C° 0 mm 1 mps 752 mmHg 85%
13:00 +9°C° 0 mm 1 mps 752 mmHg 82%
14:00 +10°C° 0 mm 1 mps 752 mmHg 79%
15:00 +9°C° 0 mm 1 mps 752 mmHg 83%
16:00 +8°C° 0 mm 1 mps 753 mmHg 87%
17:00 +7°C° 0 mm 1 mps 753 mmHg 90%
18:00 +7°C° 0 mm 1 mps 753 mmHg 91%
19:00 +6°C° 0 mm 1 mps 753 mmHg 92%
20:00 +6°C° 0 mm 1 mps 754 mmHg 93%
21:00 +6°C° 0 mm 1 mps 754 mmHg 94%
22:00 +5°C° 0 mm 1 mps 754 mmHg 94%
23:00 +5°C° 0 mm 1 mps 754 mmHg 95%
Show more

We Need Your Consent

Meteoprog and our Service Providers may store and access personal data such as cookies, device identifiers or other similar technologies on your device and process such data to personalise content and ads, as well as provide social media features and to analyse the traffic.

  • Store and/or access information on your device

    Cookies, device identifiers or other information can be stored or accessed on your device for the purposes indicated above.

  • Personalised ads and content, ad and content measurement, audience insights, and products development

    Ads and content can be personalised based on a profile. More data can be added to better personalise ads and content. Ad and content performance can be measured. Insights about the audience who saw the ads and content can be derived. Such data can be used to develop or improve user’s experience, systems and software.

By clicking ‘I Agree’ you will allow the use of indicated cookies, device identifiers, web beacons or other similar technologies. Your settings can be changed in the browser on your device.

For certain purposes, legitimate interests may be relied on, rather than consent. You can read more about this in our Privacy and Cookie Policy.